iso_date,epoch_date,Year,Hour,Min,DOY,POS_DOY,Lat,Lon,BP,Ts,Ta,has_bp,has_ts,has_ta,BuoyID,Buoy_Type,Buoy_Owner,Logistics,Hemisphere
2020-09-07T22:00:02Z,1599516003,2020,22,0,251.9167,251.9167,78.883,-158.528,-999.00,-0.69,-999.0,no,yes,no,300534060210350,SVP3GI,AOML,ARAON,North
2020-09-07T22:59:57Z,1599519597,2020,23,0,251.9583,251.9583,78.882,-158.514,-999.00,-0.7,-999.0,no,yes,no,300534060210350,SVP3GI,AOML,ARAON,North
2020-09-08T00:00:00Z,1599523200,2020,0,0,252.0,252.0,78.88,-158.499,-999.00,-0.72,-999.0,no,yes,no,300534060210350,SVP3GI,AOML,ARAON,North
2020-09-08T01:00:02Z,1599526803,2020,1,0,252.0417,252.0417,78.877,-158.484,-999.00,-0.73,-999.0,no,yes,no,300534060210350,SVP3GI,AOML,ARAON,North
2020-09-08T01:59:57Z,1599530397,2020,2,0,252.0833,252.0833,78.873,-158.471,-999.00,-0.72,-999.0,no,yes,no,300534060210350,SVP3GI,AOML,ARAON,North
2020-09-08T03:00:00Z,1599534000,2020,3,0,252.125,252.125,78.868,-158.462,-999.00,-0.73,-999.0,no,yes,no,300534060210350,SVP3GI,AOML,ARAON,North
2020-09-08T04:00:02Z,1599537603,2020,4,0,252.1667,252.1667,78.863,-158.462,-999.00,-0.72,-999.0,no,yes,no,300534060210350,SVP3GI,AOML,ARAON,North
2020-09-08T04:59:57Z,1599541197,2020,5,0,252.2083,252.2083,78.859,-158.471,-999.00,-0.71,-999.0,no,yes,no,300534060210350,SVP3GI,AOML,ARAON,North
2020-09-08T06:00:00Z,1599544800,2020,6,0,252.25,252.25,78.856,-158.489,-999.00,-0.7,-999.0,no,yes,no,300534060210350,SVP3GI,AOML,ARAON,North
2020-09-08T07:00:02Z,1599548403,2020,7,0,252.2917,252.2917,78.855,-158.511,-999.00,-0.7,-999.0,no,yes,no,300534060210350,SVP3GI,AOML,ARAON,North
2020-09-08T07:59:57Z,1599551997,2020,8,0,252.3333,252.3333,78.856,-158.535,-999.00,-0.7,-999.0,no,yes,no,300534060210350,SVP3GI,AOML,ARAON,North
2020-09-08T09:00:00Z,1599555600,2020,9,0,252.375,252.375,78.859,-158.556,-999.00,-0.7,-999.0,no,yes,no,300534060210350,SVP3GI,AOML,ARAON,North
2020-09-08T10:00:02Z,1599559203,2020,10,0,252.4167,252.4167,78.864,-158.569,-999.00,-0.7,-999.0,no,yes,no,300534060210350,SVP3GI,AOML,ARAON,North
2020-09-08T10:59:57Z,1599562797,2020,11,0,252.4583,252.4583,78.87,-158.571,-999.00,-0.7,-999.0,no,yes,no,300534060210350,SVP3GI,AOML,ARAON,North
2020-09-08T12:00:00Z,1599566400,2020,12,0,252.5,252.5,78.874,-158.559,-999.00,-0.69,-999.0,no,yes,no,300534060210350,SVP3GI,AOML,ARAON,North
2020-09-08T13:00:02Z,1599570003,2020,13,0,252.5417,252.5417,78.877,-158.541,-999.00,-0.7,-999.0,no,yes,no,300534060210350,SVP3GI,AOML,ARAON,North
2020-09-08T13:59:57Z,1599573597,2020,14,0,252.5833,252.5833,78.877,-158.52,-999.00,-0.71,-999.0,no,yes,no,300534060210350,SVP3GI,AOML,ARAON,North
2020-09-08T15:00:00Z,1599577200,2020,15,0,252.625,252.625,78.875,-158.5,-999.00,-0.72,-999.0,no,yes,no,300534060210350,SVP3GI,AOML,ARAON,North
2020-09-08T16:00:02Z,1599580803,2020,16,0,252.6667,252.6667,78.872,-158.486,-999.00,-0.73,-999.0,no,yes,no,300534060210350,SVP3GI,AOML,ARAON,North
2020-09-08T16:59:57Z,1599584397,2020,17,0,252.7083,252.7083,78.869,-158.485,-999.00,-0.74,-999.0,no,yes,no,300534060210350,SVP3GI,AOML,ARAON,North
2020-09-08T18:00:00Z,1599588000,2020,18,0,252.75,252.75,78.865,-158.495,-999.00,-0.75,-999.0,no,yes,no,300534060210350,SVP3GI,AOML,ARAON,North
2020-09-08T19:00:02Z,1599591603,2020,19,0,252.7917,252.7917,78.864,-158.514,-999.00,-0.75,-999.0,no,yes,no,300534060210350,SVP3GI,AOML,ARAON,North
2020-09-08T19:59:57Z,1599595197,2020,20,0,252.8333,252.8333,78.864,-158.536,-999.00,-0.74,-999.0,no,yes,no,300534060210350,SVP3GI,AOML,ARAON,North
2020-09-08T21:00:00Z,1599598800,2020,21,0,252.875,252.875,78.866,-158.554,-999.00,-0.73,-999.0,no,yes,no,300534060210350,SVP3GI,AOML,ARAON,North
2020-09-08T22:00:02Z,1599602403,2020,22,0,252.9167,252.9167,78.869,-158.567,-999.00,-0.71,-999.0,no,yes,no,300534060210350,SVP3GI,AOML,ARAON,North
2020-09-08T22:59:57Z,1599605997,2020,23,0,252.9583,252.9583,78.873,-158.568,-999.00,-0.71,-999.0,no,yes,no,300534060210350,SVP3GI,AOML,ARAON,North
2020-09-09T00:00:00Z,1599609600,2020,0,0,253.0,253.0,78.876,-158.558,-999.00,-0.71,-999.0,no,yes,no,300534060210350,SVP3GI,AOML,ARAON,North
2020-09-09T01:00:02Z,1599613203,2020,1,0,253.0417,253.0417,78.878,-158.54,-999.00,-0.7,-999.0,no,yes,no,300534060210350,SVP3GI,AOML,ARAON,North
2020-09-09T01:59:57Z,1599616797,2020,2,0,253.0833,253.0833,78.879,-158.517,-999.00,-0.71,-999.0,no,yes,no,300534060210350,SVP3GI,AOML,ARAON,North
2020-09-09T03:00:00Z,1599620400,2020,3,0,253.125,253.125,78.877,-158.494,-999.00,-0.71,-999.0,no,yes,no,300534060210350,SVP3GI,AOML,ARAON,North
2020-09-09T04:00:02Z,1599624003,2020,4,0,253.1667,253.1667,78.874,-158.479,-999.00,-0.71,-999.0,no,yes,no,300534060210350,SVP3GI,AOML,ARAON,North
2020-09-09T04:59:57Z,1599627597,2020,5,0,253.2083,253.2083,78.869,-158.474,-999.00,-0.71,-999.0,no,yes,no,300534060210350,SVP3GI,AOML,ARAON,North
2020-09-09T06:00:00Z,1599631200,2020,6,0,253.25,253.25,78.865,-158.479,-999.00,-0.72,-999.0,no,yes,no,300534060210350,SVP3GI,AOML,ARAON,North
2020-09-09T07:00:02Z,1599634803,2020,7,0,253.2917,253.2917,78.862,-158.494,-999.00,-0.73,-999.0,no,yes,no,300534060210350,SVP3GI,AOML,ARAON,North
2020-09-09T07:59:57Z,1599638397,2020,8,0,253.3333,253.3333,78.861,-158.512,-999.00,-0.74,-999.0,no,yes,no,300534060210350,SVP3GI,AOML,ARAON,North
2020-09-09T09:00:00Z,1599642000,2020,9,0,253.375,253.375,78.862,-158.528,-999.00,-0.74,-999.0,no,yes,no,300534060210350,SVP3GI,AOML,ARAON,North
2020-09-09T10:00:02Z,1599645603,2020,10,0,253.4167,253.4167,78.864,-158.538,-999.00,-0.75,-999.0,no,yes,no,300534060210350,SVP3GI,AOML,ARAON,North
2020-09-09T10:59:57Z,1599649197,2020,11,0,253.4583,253.4583,78.866,-158.54,-999.00,-0.75,-999.0,no,yes,no,300534060210350,SVP3GI,AOML,ARAON,North
2020-09-09T12:00:00Z,1599652800,2020,12,0,253.5,253.5,78.869,-158.532,-999.00,-0.76,-999.0,no,yes,no,300534060210350,SVP3GI,AOML,ARAON,North
2020-09-09T13:00:02Z,1599656403,2020,13,0,253.5417,253.5417,78.871,-158.513,-999.00,-0.76,-999.0,no,yes,no,300534060210350,SVP3GI,AOML,ARAON,North
2020-09-09T13:59:57Z,1599659997,2020,14,0,253.5833,253.5833,78.871,-158.49,-999.00,-0.77,-999.0,no,yes,no,300534060210350,SVP3GI,AOML,ARAON,North
2020-09-09T15:00:00Z,1599663600,2020,15,0,253.625,253.625,78.87,-158.467,-999.00,-0.77,-999.0,no,yes,no,300534060210350,SVP3GI,AOML,ARAON,North
2020-09-09T16:00:02Z,1599667203,2020,16,0,253.6667,253.6667,78.866,-158.454,-999.00,-0.78,-999.0,no,yes,no,300534060210350,SVP3GI,AOML,ARAON,North
2020-09-09T16:59:57Z,1599670797,2020,17,0,253.7083,253.7083,78.862,-158.451,-999.00,-0.84,-999.0,no,yes,no,300534060210350,SVP3GI,AOML,ARAON,North
2020-09-09T18:00:00Z,1599674400,2020,18,0,253.75,253.75,78.858,-158.458,-999.00,-0.83,-999.0,no,yes,no,300534060210350,SVP3GI,AOML,ARAON,North
2020-09-09T19:00:02Z,1599678003,2020,19,0,253.7917,253.7917,78.855,-158.474,-999.00,-0.84,-999.0,no,yes,no,300534060210350,SVP3GI,AOML,ARAON,North
2020-09-09T19:59:57Z,1599681597,2020,20,0,253.8333,253.8333,78.854,-158.493,-999.00,-0.82,-999.0,no,yes,no,300534060210350,SVP3GI,AOML,ARAON,North
2020-09-09T21:00:00Z,1599685200,2020,21,0,253.875,253.875,78.855,-158.508,-999.00,-0.83,-999.0,no,yes,no,300534060210350,SVP3GI,AOML,ARAON,North
2020-09-09T22:00:02Z,1599688803,2020,22,0,253.9167,253.9167,78.856,-158.519,-999.00,-0.86,-999.0,no,yes,no,300534060210350,SVP3GI,AOML,ARAON,North
2020-09-09T22:59:57Z,1599692397,2020,23,0,253.9583,253.9583,78.859,-158.522,-999.00,-0.81,-999.0,no,yes,no,300534060210350,SVP3GI,AOML,ARAON,North
2020-09-10T00:00:00Z,1599696000,2020,0,0,254.0,254.0,78.862,-158.516,-999.00,-0.83,-999.0,no,yes,no,300534060210350,SVP3GI,AOML,ARAON,North
2020-09-10T01:00:02Z,1599699603,2020,1,0,254.0417,254.0417,78.864,-158.499,-999.00,-0.89,-999.0,no,yes,no,300534060210350,SVP3GI,AOML,ARAON,North
2020-09-10T01:59:57Z,1599703197,2020,2,0,254.0833,254.0833,78.864,-158.477,-999.00,-0.92,-999.0,no,yes,no,300534060210350,SVP3GI,AOML,ARAON,North
2020-09-10T03:00:00Z,1599706800,2020,3,0,254.125,254.125,78.861,-158.456,-999.00,-0.96,-999.0,no,yes,no,300534060210350,SVP3GI,AOML,ARAON,North
2020-09-10T04:00:02Z,1599710403,2020,4,0,254.1667,254.1667,78.857,-158.439,-999.00,-0.95,-999.0,no,yes,no,300534060210350,SVP3GI,AOML,ARAON,North
2020-09-10T04:59:57Z,1599713997,2020,5,0,254.2083,254.2083,78.852,-158.431,-999.00,-0.9,-999.0,no,yes,no,300534060210350,SVP3GI,AOML,ARAON,North
2020-09-10T06:00:00Z,1599717600,2020,6,0,254.25,254.25,78.848,-158.432,-999.00,-0.91,-999.0,no,yes,no,300534060210350,SVP3GI,AOML,ARAON,North
2020-09-10T07:00:02Z,1599721203,2020,7,0,254.2917,254.2917,78.845,-158.437,-999.00,-0.93,-999.0,no,yes,no,300534060210350,SVP3GI,AOML,ARAON,North
2020-09-10T07:59:57Z,1599724797,2020,8,0,254.3333,254.3333,78.844,-158.445,-999.00,-0.91,-999.0,no,yes,no,300534060210350,SVP3GI,AOML,ARAON,North
2020-09-10T09:00:00Z,1599728400,2020,9,0,254.375,254.375,78.843,-158.453,-999.00,-0.89,-999.0,no,yes,no,300534060210350,SVP3GI,AOML,ARAON,North
2020-09-10T10:00:02Z,1599732003,2020,10,0,254.4167,254.4167,78.844,-158.458,-999.00,-0.88,-999.0,no,yes,no,300534060210350,SVP3GI,AOML,ARAON,North
2020-09-10T10:59:57Z,1599735597,2020,11,0,254.4583,254.4583,78.845,-158.459,-999.00,-0.86,-999.0,no,yes,no,300534060210350,SVP3GI,AOML,ARAON,North
2020-09-10T12:00:00Z,1599739200,2020,12,0,254.5,254.5,78.847,-158.452,-999.00,-0.84,-999.0,no,yes,no,300534060210350,SVP3GI,AOML,ARAON,North
2020-09-10T13:00:02Z,1599742803,2020,13,0,254.5417,254.5417,78.848,-158.439,-999.00,-0.85,-999.0,no,yes,no,300534060210350,SVP3GI,AOML,ARAON,North
2020-09-10T13:59:57Z,1599746397,2020,14,0,254.5833,254.5833,78.848,-158.419,-999.00,-0.9,-999.0,no,yes,no,300534060210350,SVP3GI,AOML,ARAON,North
2020-09-10T15:00:00Z,1599750000,2020,15,0,254.625,254.625,78.846,-158.398,-999.00,-0.89,-999.0,no,yes,no,300534060210350,SVP3GI,AOML,ARAON,North
2020-09-10T16:00:02Z,1599753603,2020,16,0,254.6667,254.6667,78.844,-158.381,-999.00,-0.87,-999.0,no,yes,no,300534060210350,SVP3GI,AOML,ARAON,North
2020-09-10T16:59:57Z,1599757197,2020,17,0,254.7083,254.7083,78.84,-158.372,-999.00,-0.87,-999.0,no,yes,no,300534060210350,SVP3GI,AOML,ARAON,North
2020-09-10T18:00:00Z,1599760800,2020,18,0,254.75,254.75,78.836,-158.372,-999.00,-0.86,-999.0,no,yes,no,300534060210350,SVP3GI,AOML,ARAON,North
2020-09-10T19:00:02Z,1599764403,2020,19,0,254.7917,254.7917,78.834,-158.379,-999.00,-0.86,-999.0,no,yes,no,300534060210350,SVP3GI,AOML,ARAON,North
2020-09-10T19:59:57Z,1599767997,2020,20,0,254.8333,254.8333,78.833,-158.389,-999.00,-0.86,-999.0,no,yes,no,300534060210350,SVP3GI,AOML,ARAON,North
2020-09-10T21:00:00Z,1599771600,2020,21,0,254.875,254.875,78.834,-158.401,-999.00,-0.86,-999.0,no,yes,no,300534060210350,SVP3GI,AOML,ARAON,North
2020-09-10T22:00:02Z,1599775203,2020,22,0,254.9167,254.9167,78.836,-158.408,-999.00,-0.85,-999.0,no,yes,no,300534060210350,SVP3GI,AOML,ARAON,North
2020-09-10T22:59:57Z,1599778797,2020,23,0,254.9583,254.9583,78.838,-158.41,-999.00,-0.83,-999.0,no,yes,no,300534060210350,SVP3GI,AOML,ARAON,North
2020-09-11T00:00:00Z,1599782400,2020,0,0,255.0,255.0,78.841,-158.403,-999.00,-0.81,-999.0,no,yes,no,300534060210350,SVP3GI,AOML,ARAON,North
2020-09-11T01:00:02Z,1599786003,2020,1,0,255.0417,255.0417,78.842,-158.39,-999.00,-0.8,-999.0,no,yes,no,300534060210350,SVP3GI,AOML,ARAON,North
2020-09-11T01:59:57Z,1599789597,2020,2,0,255.0833,255.0833,78.842,-158.373,-999.00,-0.8,-999.0,no,yes,no,300534060210350,SVP3GI,AOML,ARAON,North
2020-09-11T03:00:00Z,1599793200,2020,3,0,255.125,255.125,78.841,-158.358,-999.00,-0.8,-999.0,no,yes,no,300534060210350,SVP3GI,AOML,ARAON,North
2020-09-11T04:00:02Z,1599796803,2020,4,0,255.1667,255.1667,78.839,-158.347,-999.00,-0.82,-999.0,no,yes,no,300534060210350,SVP3GI,AOML,ARAON,North
2020-09-11T04:59:57Z,1599800397,2020,5,0,255.2083,255.2083,78.836,-158.343,-999.00,-0.82,-999.0,no,yes,no,300534060210350,SVP3GI,AOML,ARAON,North
2020-09-11T06:00:00Z,1599804000,2020,6,0,255.25,255.25,78.833,-158.347,-999.00,-0.83,-999.0,no,yes,no,300534060210350,SVP3GI,AOML,ARAON,North
2020-09-11T07:00:02Z,1599807603,2020,7,0,255.2917,255.2917,78.831,-158.353,-999.00,-0.83,-999.0,no,yes,no,300534060210350,SVP3GI,AOML,ARAON,North
2020-09-11T07:59:57Z,1599811197,2020,8,0,255.3333,255.3333,78.83,-158.363,-999.00,-0.84,-999.0,no,yes,no,300534060210350,SVP3GI,AOML,ARAON,North
2020-09-11T09:00:00Z,1599814800,2020,9,0,255.375,255.375,78.829,-158.371,-999.00,-0.84,-999.0,no,yes,no,300534060210350,SVP3GI,AOML,ARAON,North
2020-09-11T10:00:02Z,1599818403,2020,10,0,255.4167,255.4167,78.829,-158.377,-999.00,-0.84,-999.0,no,yes,no,300534060210350,SVP3GI,AOML,ARAON,North
2020-09-11T10:59:57Z,1599821997,2020,11,0,255.4583,255.4583,78.83,-158.381,-999.00,-0.84,-999.0,no,yes,no,300534060210350,SVP3GI,AOML,ARAON,North
2020-09-11T12:00:00Z,1599825600,2020,12,0,255.5,255.5,78.831,-158.38,-999.00,-0.92,-999.0,no,yes,no,300534060210350,SVP3GI,AOML,ARAON,North
2020-09-11T13:00:02Z,1599829203,2020,13,0,255.5417,255.5417,78.832,-158.372,-999.00,-0.92,-999.0,no,yes,no,300534060210350,SVP3GI,AOML,ARAON,North
2020-09-11T13:59:57Z,1599832797,2020,14,0,255.5833,255.5833,78.832,-158.361,-999.00,-0.97,-999.0,no,yes,no,300534060210350,SVP3GI,AOML,ARAON,North
2020-09-11T15:00:00Z,1599836400,2020,15,0,255.625,255.625,78.831,-158.351,-999.00,-0.99,-999.0,no,yes,no,300534060210350,SVP3GI,AOML,ARAON,North
2020-09-11T16:00:02Z,1599840003,2020,16,0,255.6667,255.6667,78.829,-158.344,-999.00,-0.99,-999.0,no,yes,no,300534060210350,SVP3GI,AOML,ARAON,North
2020-09-11T16:59:57Z,1599843597,2020,17,0,255.7083,255.7083,78.828,-158.341,-999.00,-0.95,-999.0,no,yes,no,300534060210350,SVP3GI,AOML,ARAON,North
2020-09-11T18:00:00Z,1599847200,2020,18,0,255.75,255.75,78.827,-158.339,-999.00,-0.95,-999.0,no,yes,no,300534060210350,SVP3GI,AOML,ARAON,North
2020-09-11T19:00:02Z,1599850803,2020,19,0,255.7917,255.7917,78.825,-158.339,-999.00,-0.93,-999.0,no,yes,no,300534060210350,SVP3GI,AOML,ARAON,North
2020-09-11T19:59:57Z,1599854397,2020,20,0,255.8333,255.8333,78.824,-158.341,-999.00,-0.9,-999.0,no,yes,no,300534060210350,SVP3GI,AOML,ARAON,North
2020-09-11T21:00:00Z,1599858000,2020,21,0,255.875,255.875,78.823,-158.348,-999.00,-0.89,-999.0,no,yes,no,300534060210350,SVP3GI,AOML,ARAON,North
2020-09-11T22:00:02Z,1599861603,2020,22,0,255.9167,255.9167,78.824,-158.356,-999.00,-0.86,-999.0,no,yes,no,300534060210350,SVP3GI,AOML,ARAON,North
2020-09-11T22:59:57Z,1599865197,2020,23,0,255.9583,255.9583,78.825,-158.362,-999.00,-0.87,-999.0,no,yes,no,300534060210350,SVP3GI,AOML,ARAON,North
2020-09-12T00:00:00Z,1599868800,2020,0,0,256.0,256.0,78.826,-158.362,-999.00,-0.87,-999.0,no,yes,no,300534060210350,SVP3GI,AOML,ARAON,North
2020-09-12T01:00:02Z,1599872403,2020,1,0,256.0417,256.0417,78.828,-158.356,-999.00,-0.88,-999.0,no,yes,no,300534060210350,SVP3GI,AOML,ARAON,North
2020-09-12T01:59:57Z,1599875997,2020,2,0,256.0833,256.0833,78.829,-158.344,-999.00,-0.89,-999.0,no,yes,no,300534060210350,SVP3GI,AOML,ARAON,North
2020-09-12T03:00:00Z,1599879600,2020,3,0,256.125,256.125,78.829,-158.329,-999.00,-0.87,-999.0,no,yes,no,300534060210350,SVP3GI,AOML,ARAON,North
2020-09-12T04:00:02Z,1599883203,2020,4,0,256.1667,256.1667,78.828,-158.314,-999.00,-0.91,-999.0,no,yes,no,300534060210350,SVP3GI,AOML,ARAON,North
2020-09-12T04:59:57Z,1599886797,2020,5,0,256.2083,256.2083,78.826,-158.302,-999.00,-0.91,-999.0,no,yes,no,300534060210350,SVP3GI,AOML,ARAON,North
2020-09-12T06:00:00Z,1599890400,2020,6,0,256.25,256.25,78.824,-158.294,-999.00,-0.91,-999.0,no,yes,no,300534060210350,SVP3GI,AOML,ARAON,North
2020-09-12T07:00:02Z,1599894003,2020,7,0,256.2917,256.2917,78.822,-158.293,-999.00,-0.9,-999.0,no,yes,no,300534060210350,SVP3GI,AOML,ARAON,North
2020-09-12T07:59:57Z,1599897597,2020,8,0,256.3333,256.3333,78.821,-158.296,-999.00,-0.9,-999.0,no,yes,no,300534060210350,SVP3GI,AOML,ARAON,North
2020-09-12T09:00:00Z,1599901200,2020,9,0,256.375,256.375,78.821,-158.302,-999.00,-0.9,-999.0,no,yes,no,300534060210350,SVP3GI,AOML,ARAON,North
2020-09-12T10:00:02Z,1599904803,2020,10,0,256.4167,256.4167,78.821,-158.306,-999.00,-0.9,-999.0,no,yes,no,300534060210350,SVP3GI,AOML,ARAON,North
2020-09-12T10:59:57Z,1599908397,2020,11,0,256.4583,256.4583,78.823,-158.308,-999.00,-0.9,-999.0,no,yes,no,300534060210350,SVP3GI,AOML,ARAON,North
2020-09-12T12:00:00Z,1599912000,2020,12,0,256.5,256.5,78.825,-158.305,-999.00,-0.9,-999.0,no,yes,no,300534060210350,SVP3GI,AOML,ARAON,North
2020-09-12T13:00:02Z,1599915603,2020,13,0,256.5417,256.5417,78.827,-158.296,-999.00,-0.9,-999.0,no,yes,no,300534060210350,SVP3GI,AOML,ARAON,North
2020-09-12T13:59:57Z,1599919197,2020,14,0,256.5833,256.5833,78.829,-158.279,-999.00,-0.9,-999.0,no,yes,no,300534060210350,SVP3GI,AOML,ARAON,North
2020-09-12T15:00:00Z,1599922800,2020,15,0,256.625,256.625,78.83,-158.258,-999.00,-0.9,-999.0,no,yes,no,300534060210350,SVP3GI,AOML,ARAON,North
2020-09-12T16:00:02Z,1599926403,2020,16,0,256.6667,256.6667,78.829,-158.236,-999.00,-0.9,-999.0,no,yes,no,300534060210350,SVP3GI,AOML,ARAON,North
2020-09-12T16:59:57Z,1599929997,2020,17,0,256.7083,256.7083,78.827,-158.217,-999.00,-0.9,-999.0,no,yes,no,300534060210350,SVP3GI,AOML,ARAON,North
2020-09-12T18:00:00Z,1599933600,2020,18,0,256.75,256.75,78.824,-158.205,-999.00,-0.88,-999.0,no,yes,no,300534060210350,SVP3GI,AOML,ARAON,North
2020-09-12T19:00:02Z,1599937203,2020,19,0,256.7917,256.7917,78.822,-158.2,-999.00,-0.88,-999.0,no,yes,no,300534060210350,SVP3GI,AOML,ARAON,North
2020-09-12T19:59:57Z,1599940797,2020,20,0,256.8333,256.8333,78.82,-158.203,-999.00,-0.89,-999.0,no,yes,no,300534060210350,SVP3GI,AOML,ARAON,North
2020-09-12T21:00:00Z,1599944400,2020,21,0,256.875,256.875,78.819,-158.209,-999.00,-0.89,-999.0,no,yes,no,300534060210350,SVP3GI,AOML,ARAON,North
2020-09-12T22:00:02Z,1599948003,2020,22,0,256.9167,256.9167,78.819,-158.214,-999.00,-0.89,-999.0,no,yes,no,300534060210350,SVP3GI,AOML,ARAON,North
2020-09-12T22:59:57Z,1599951597,2020,23,0,256.9583,256.9583,78.821,-158.217,-999.00,-0.89,-999.0,no,yes,no,300534060210350,SVP3GI,AOML,ARAON,North
2020-09-13T00:00:00Z,1599955200,2020,0,0,257.0,257.0,78.823,-158.218,-999.00,-0.89,-999.0,no,yes,no,300534060210350,SVP3GI,AOML,ARAON,North
2020-09-13T01:00:02Z,1599958803,2020,1,0,257.0417,257.0417,78.826,-158.211,-999.00,-0.89,-999.0,no,yes,no,300534060210350,SVP3GI,AOML,ARAON,North
2020-09-13T01:59:57Z,1599962397,2020,2,0,257.0833,257.0833,78.828,-158.199,-999.00,-0.89,-999.0,no,yes,no,300534060210350,SVP3GI,AOML,ARAON,North
2020-09-13T03:00:00Z,1599966000,2020,3,0,257.125,257.125,78.83,-158.183,-999.00,-0.89,-999.0,no,yes,no,300534060210350,SVP3GI,AOML,ARAON,North
2020-09-13T04:00:02Z,1599969603,2020,4,0,257.1667,257.1667,78.829,-158.166,-999.00,-0.9,-999.0,no,yes,no,300534060210350,SVP3GI,AOML,ARAON,North
2020-09-13T04:59:57Z,1599973197,2020,5,0,257.2083,257.2083,78.827,-158.155,-999.00,-0.9,-999.0,no,yes,no,300534060210350,SVP3GI,AOML,ARAON,North
2020-09-13T06:00:00Z,1599976800,2020,6,0,257.25,257.25,78.824,-158.153,-999.00,-0.89,-999.0,no,yes,no,300534060210350,SVP3GI,AOML,ARAON,North
2020-09-13T07:00:02Z,1599980403,2020,7,0,257.2917,257.2917,78.821,-158.159,-999.00,-0.88,-999.0,no,yes,no,300534060210350,SVP3GI,AOML,ARAON,North
2020-09-13T07:59:57Z,1599983997,2020,8,0,257.3333,257.3333,78.82,-158.173,-999.00,-0.89,-999.0,no,yes,no,300534060210350,SVP3GI,AOML,ARAON,North
2020-09-13T09:00:00Z,1599987600,2020,9,0,257.375,257.375,78.819,-158.187,-999.00,-0.89,-999.0,no,yes,no,300534060210350,SVP3GI,AOML,ARAON,North
2020-09-13T10:00:02Z,1599991203,2020,10,0,257.4167,257.4167,78.82,-158.199,-999.00,-0.89,-999.0,no,yes,no,300534060210350,SVP3GI,AOML,ARAON,North
2020-09-13T10:59:57Z,1599994797,2020,11,0,257.4583,257.4583,78.823,-158.212,-999.00,-0.88,-999.0,no,yes,no,300534060210350,SVP3GI,AOML,ARAON,North
2020-09-13T12:00:00Z,1599998400,2020,12,0,257.5,257.5,78.827,-158.222,-999.00,-0.87,-999.0,no,yes,no,300534060210350,SVP3GI,AOML,ARAON,North
2020-09-13T13:00:02Z,1600002003,2020,13,0,257.5417,257.5417,78.831,-158.224,-999.00,-0.88,-999.0,no,yes,no,300534060210350,SVP3GI,AOML,ARAON,North
2020-09-13T13:59:57Z,1600005597,2020,14,0,257.5833,257.5833,78.836,-158.219,-999.00,-0.87,-999.0,no,yes,no,300534060210350,SVP3GI,AOML,ARAON,North
2020-09-13T15:00:00Z,1600009200,2020,15,0,257.625,257.625,78.839,-158.208,-999.00,-0.84,-999.0,no,yes,no,300534060210350,SVP3GI,AOML,ARAON,North
2020-09-13T16:00:02Z,1600012803,2020,16,0,257.6667,257.6667,78.841,-158.197,-999.00,-0.8,-999.0,no,yes,no,300534060210350,SVP3GI,AOML,ARAON,North
2020-09-13T16:59:57Z,1600016397,2020,17,0,257.7083,257.7083,78.842,-158.184,-999.00,-0.8,-999.0,no,yes,no,300534060210350,SVP3GI,AOML,ARAON,North
2020-09-13T18:00:00Z,1600020000,2020,18,0,257.75,257.75,78.842,-158.173,-999.00,-0.8,-999.0,no,yes,no,300534060210350,SVP3GI,AOML,ARAON,North
2020-09-13T19:00:02Z,1600023603,2020,19,0,257.7917,257.7917,78.84,-158.167,-999.00,-0.8,-999.0,no,yes,no,300534060210350,SVP3GI,AOML,ARAON,North
2020-09-13T19:59:57Z,1600027197,2020,20,0,257.8333,257.8333,78.838,-158.168,-999.00,-0.8,-999.0,no,yes,no,300534060210350,SVP3GI,AOML,ARAON,North
2020-09-13T21:00:00Z,1600030800,2020,21,0,257.875,257.875,78.836,-158.176,-999.00,-0.8,-999.0,no,yes,no,300534060210350,SVP3GI,AOML,ARAON,North
2020-09-13T22:00:02Z,1600034403,2020,22,0,257.9167,257.9167,78.835,-158.188,-999.00,-0.8,-999.0,no,yes,no,300534060210350,SVP3GI,AOML,ARAON,North
2020-09-13T22:59:57Z,1600037997,2020,23,0,257.9583,257.9583,78.835,-158.202,-999.00,-0.83,-999.0,no,yes,no,300534060210350,SVP3GI,AOML,ARAON,North
2020-09-14T00:00:00Z,1600041600,2020,0,0,258.0,258.0,78.836,-158.213,-999.00,-0.8,-999.0,no,yes,no,300534060210350,SVP3GI,AOML,ARAON,North
2020-09-14T01:00:02Z,1600045203,2020,1,0,258.0417,258.0417,78.839,-158.221,-999.00,-0.82,-999.0,no,yes,no,300534060210350,SVP3GI,AOML,ARAON,North
2020-09-14T01:59:57Z,1600048797,2020,2,0,258.0833,258.0833,78.841,-158.22,-999.00,-0.81,-999.0,no,yes,no,300534060210350,SVP3GI,AOML,ARAON,North
2020-09-14T03:00:00Z,1600052400,2020,3,0,258.125,258.125,78.843,-158.212,-999.00,-0.8,-999.0,no,yes,no,300534060210350,SVP3GI,AOML,ARAON,North
2020-09-14T04:00:02Z,1600056003,2020,4,0,258.1667,258.1667,78.843,-158.198,-999.00,-0.82,-999.0,no,yes,no,300534060210350,SVP3GI,AOML,ARAON,North
2020-09-14T04:59:57Z,1600059597,2020,5,0,258.2083,258.2083,78.842,-158.183,-999.00,-0.85,-999.0,no,yes,no,300534060210350,SVP3GI,AOML,ARAON,North
2020-09-14T06:00:00Z,1600063200,2020,6,0,258.25,258.25,78.839,-158.168,-999.00,-0.88,-999.0,no,yes,no,300534060210350,SVP3GI,AOML,ARAON,North
2020-09-14T07:00:02Z,1600066803,2020,7,0,258.2917,258.2917,78.836,-158.158,-999.00,-0.88,-999.0,no,yes,no,300534060210350,SVP3GI,AOML,ARAON,North
2020-09-14T07:59:57Z,1600070397,2020,8,0,258.3333,258.3333,78.832,-158.154,-999.00,-0.89,-999.0,no,yes,no,300534060210350,SVP3GI,AOML,ARAON,North
2020-09-14T09:00:00Z,1600074000,2020,9,0,258.375,258.375,78.827,-158.158,-999.00,-0.92,-999.0,no,yes,no,300534060210350,SVP3GI,AOML,ARAON,North
2020-09-14T10:00:02Z,1600077603,2020,10,0,258.4167,258.4167,78.824,-158.168,-999.00,-0.88,-999.0,no,yes,no,300534060210350,SVP3GI,AOML,ARAON,North
2020-09-14T10:59:57Z,1600081197,2020,11,0,258.4583,258.4583,78.824,-158.181,-999.00,-0.88,-999.0,no,yes,no,300534060210350,SVP3GI,AOML,ARAON,North
2020-09-14T12:00:00Z,1600084800,2020,12,0,258.5,258.5,78.825,-158.19,-999.00,-0.89,-999.0,no,yes,no,300534060210350,SVP3GI,AOML,ARAON,North
2020-09-14T13:00:02Z,1600088403,2020,13,0,258.5417,258.5417,78.827,-158.193,-999.00,-0.91,-999.0,no,yes,no,300534060210350,SVP3GI,AOML,ARAON,North
2020-09-14T13:59:57Z,1600091997,2020,14,0,258.5833,258.5833,78.829,-158.185,-999.00,-0.91,-999.0,no,yes,no,300534060210350,SVP3GI,AOML,ARAON,North
2020-09-14T15:00:00Z,1600095600,2020,15,0,258.625,258.625,78.83,-158.17,-999.00,-0.9,-999.0,no,yes,no,300534060210350,SVP3GI,AOML,ARAON,North
2020-09-14T16:00:02Z,1600099203,2020,16,0,258.6667,258.6667,78.83,-158.15,-999.00,-0.91,-999.0,no,yes,no,300534060210350,SVP3GI,AOML,ARAON,North
2020-09-14T16:59:57Z,1600102797,2020,17,0,258.7083,258.7083,78.828,-158.126,-999.00,-0.9,-999.0,no,yes,no,300534060210350,SVP3GI,AOML,ARAON,North